Wind_Speed
3 3 3 3 3 3 4 4 4 3 2 2 2 2 2 2 2 2 3 3 4 4 4 4 4 4 4 4 5 5 4 4 4 4 4 4 4 5 5 5 5 6 6
3 4 3 3 3 4 4 4 4 3 3 2 2 3 3 3 3 3 3 4 4 5 5 4 4 5 5 6 5 6 6 6 6 6 6 6 6 6 6 6 7 6 6
4 4 5 5 4 4 5 5 4 3 3 3 4 3 3 3 3 4 4 4 5 5 5 5 5 5 6 6 7 7 7 7 7 7 7 7 7 7 7 8 8 7 8
4 4 5 6 6 6 6 6 5 5 5 5 5 4 4 4 4 4 4 5 5 5 5 5 6 6 6 7 7 8 8 8 8 8 9 8 8 9 9 9 9 9 8
5 5 5 6 6 6 6 6 7 7 7 6 6 6 5 5 6 6 6 6 6 6 6 7 7 7 8 8 8 9 9 9 9 9 9 9 10 10 10 10 11 10 9
6 6 6 6 7 7 7 7 7 7 8 7 7 7 7 7 7 7 7 7 8 8 7 8 9 10 10 10 10 10 10 10 11 11 11 10 11 11 11 11 11 12 11
7 7 7 7 8 8 8 8 8 8 8 9 9 9 9 9 9 9 9 9 9 9 9 9 10 11 11 11 11 11 11 12 12 12 12 12 13 13 13 13 13 13 13
8 8 9 8 9 9 9 9 9 9 10 11 11 11 10 10 10 10 10 10 10 11 11 11 11 12 12 12 12 13 13 13 14 14 14 14 15 15 15 15 15 14 14
9 10 10 9 9 9 8 9 9 10 11 10 10 11 11 11 11 11 11 11 11 11 12 12 13 14 13 14 14 14 15 16 16 16 16 16 16 17 17 17 18 17 17
10 10 10 9 9 9 9 10 10 10 10 10 11 11 11 11 11 11 12 13 13 13 13 14 14 15 16 15 15 15 16 17 17 18 18 17 17 18 19 19 19 18 18
11 11 10 10 10 10 10 10 10 11 11 11 12 12 12 12 12 13 13 14 15 15 15 15 15 15 16 16 16 16 17 18 18 18 18 18 18 19 19 18 18 18 18
12 12 13 12 11 11 11 11 11 11 11 12 12 13 12 12 13 14 14 15 16 16 16 16 17 17 17 17 17 18 18 18 19 19 19 19 19 19 18 19 19 19 19
14 13 15 14 13 13 12 12 12 13 13 13 13 14 14 14 15 15 15 15 16 17 18 18 18 18 18 18 18 18 19 19 19 20 20 19 20 20 20 20 20 20 21
15 15 16 16 15 14 13 13 13 13 14 14 14 15 15 16 17 17 17 17 17 18 19 18 18 18 19 19 19 19 19 19 20 21 21 20 21 21 22 22 22 22 23
16 17 17 16 15 15 14 14 14 15 15 15 16 16 17 17 18 19 19 19 19 19 20 20 20 20 20 20 21 21 20 20 21 21 21 22 22 22 23 23 23 24 24
17 17 17 16 15 15 15 16 16 16 17 17 18 18 18 19 19 20 21 21 21 21 21 21 22 22 22 21 22 23 22 22 21 21 21 21 22 23 23 23 24 24 25
19 19 18 18 17 18 17 18 18 18 18 18 19 20 21 21 21 22 23 23 23 23 23 22 22 23 23 23 23 22 22 22 22 22 22 23 23 24 24 24 24 24 25
20 20 20 19 19 19 19 19 20 20 20 21 21 22 22 23 23 24 25 25 25 25 25 24 24 24 24 24 23 23 23 24 23 23 23 23 23 24 24 24 24 24 25
20 20 20 20 20 20 20 20 21 21 22 23 23 24 24 24 25 26 27 27 27 27 27 26 25 25 25 25 24 25 24 25 25 25 24 24 24 25 25 25 25 25 26
21 21 21 21 21 22 22 22 22 23 24 25 26 26 26 27 27 28 29 29 29 29 29 28 28 27 26 27 27 26 26 27 27 27 26 26 25 26 26 26 26 26 26
23 22 22 22 22 22 23 24 24 26 27 27 28 28 28 28 28 29 29 30 30 30 31 30 30 29 28 29 29 29 28 28 28 29 28 27 27 26 25 25 26 26 27
24 24 25 25 25 25 25 25 26 27 28 29 29 29 29 29 30 30 30 30 31 31 31 31 30 29 29 29 30 30 30 30 30 30 30 29 27 26 26 26 27 27 26
26 26 27 28 28 27 28 28 28 29 29 30 30 31 32 32 31 31 31 31 31 32 32 33 32 31 31 31 30 31 31 31 31 31 31 30 29 27 27 26 26 26 26
28 28 29 30 30 30 31 31 30 30 30 31 32 32 33 33 32 32 33 32 32 32 33 32 31 31 31 31 31 30 31 31 31 31 31 30 29 29 29 27 27 26 26
30 31 31 32 32 32 33 32 32 32 32 33 33 33 34 34 34 34 34 34 34 34 33 31 30 30 29 30 30 31 31 31 30 30 30 30 30 30 29 28 27 27 27
32 32 32 33 33 33 33 33 33 34 35 34 34 34 35 35 35 35 35 35 34 33 33 32 31 30 30 30 30 31 32 32 31 31 30 31 31 31 30 29 28 28 27
Wind_Direction
17 21 15 8 3 355 342 325 330 315 315 317 277 284 301 309 303 317 315 327 335 337 333 323 320 323 315 312 309 310 312 311 312 305 301 297 297 285 287 290 291 291 285
10 11 7 351 346 342 340 337 321 322 316 317 305 296 306 319 329 309 303 309 320 325 326 323 309 311 313 311 299 301 307 303 301 298 293 287 289 294 290 287 283 285 288
2 3 357 346 339 330 330 331 325 323 312 292 289 295 305 302 305 308 313 309 312 317 320 317 316 311 312 315 305 302 303 303 302 301 297 288 283 284 285 286 286 282 279
356 351 348 340 331 324 321 317 312 305 296 290 291 290 290 292 287 290 299 304 304 301 308 313 314 313 309 307 306 303 302 298 298 300 300 296 287 284 286 283 281 277 277
344 338 336 335 328 322 315 310 308 299 296 291 291 287 286 288 290 288 291 291 291 294 299 301 302 304 307 302 299 298 299 299 299 301 301 298 294 291 288 286 282 274 270
330 325 325 325 326 320 312 307 302 294 293 290 287 283 279 284 286 287 290 288 288 287 293 298 296 296 299 300 297 294 294 295 295 294 296 295 292 287 288 286 284 277 271
321 318 321 320 321 320 311 304 303 294 292 293 289 284 279 279 283 286 288 287 290 291 289 288 293 296 296 299 298 297 296 292 291 292 290 290 289 286 284 283 280 280 273
311 309 313 313 316 318 312 301 296 294 295 291 288 283 281 280 283 285 290 291 290 291 292 289 287 291 294 295 296 296 295 293 291 289 287 287 286 285 282 279 277 277 276
304 301 302 307 311 315 313 305 301 300 300 297 290 288 288 284 289 286 288 291 289 288 289 291 292 293 292 292 292 292 294 292 291 289 288 288 286 283 281 281 279 275 274
302 298 299 305 308 311 309 303 300 303 305 302 296 294 292 291 290 289 291 292 294 293 293 291 290 291 292 293 293 291 292 293 292 293 290 289 287 284 282 282 281 278 276
305 301 299 301 303 308 308 304 300 301 302 304 304 304 300 296 296 295 296 295 292 293 293 291 292 292 293 293 291 291 292 291 291 291 291 289 288 287 284 282 281 279 277
308 304 300 295 299 304 305 305 304 303 301 302 301 302 302 300 300 301 301 300 297 293 292 292 292 292 292 292 290 289 289 289 288 288 288 287 285 285 285 284 282 282 279
311 308 306 301 299 302 301 302 300 298 296 298 299 300 298 297 299 301 302 303 301 298 295 293 290 291 292 290 290 290 289 288 285 284 284 285 282 282 282 284 283 280 278
305 305 303 301 300 298 296 296 298 297 296 295 297 299 299 298 297 298 300 302 301 300 298 298 297 296 293 290 289 290 291 288 286 285 284 284 284 284 284 283 281 280 278
308 306 302 300 298 297 294 292 294 297 294 294 296 296 295 297 297 298 300 299 298 297 297 299 297 296 293 292 289 289 289 289 289 286 284 285 286 286 286 286 283 282 280
308 308 304 299 296 296 295 292 292 296 295 296 298 297 295 294 294 295 297 296 296 295 295 297 298 296 292 291 288 288 288 289 290 287 284 285 286 286 287 287 285 283 282
303 304 302 298 296 296 294 291 292 295 296 298 299 297 295 295 296 297 295 295 294 294 294 294 296 296 293 292 289 289 288 289 290 288 285 284 286 286 287 287 286 285 283
299 299 300 299 297 296 296 294 291 292 294 297 297 296 295 293 294 296 294 293 292 292 293 292 292 292 291 291 291 291 291 290 289 289 288 285 284 286 287 287 286 284 283
297 297 297 299 298 297 296 295 294 293 293 294 295 296 296 294 293 294 294 292 290 292 291 291 290 290 288 288 289 290 290 289 289 288 287 286 285 286 286 287 285 284 283
294 295 294 295 295 294 294 294 295 295 295 295 296 297 297 295 296 294 293 293 291 291 291 291 291 290 288 288 288 288 288 289 290 288 287 286 286 286 287 285 284 284 284
293 293 292 292 293 293 293 293 293 293 294 296 296 297 298 298 296 295 295 296 293 291 290 290 290 289 288 288 287 288 288 289 290 289 289 288 287 285 285 285 284 284 284
293 292 292 293 294 294 294 294 293 294 294 295 296 296 297 297 297 296 297 296 295 293 291 289 289 287 286 287 286 287 287 288 288 288 289 288 288 286 286 286 285 284 285
292 292 292 293 294 295 294 293 292 294 294 294 295 295 295 295 296 295 295 294 293 293 292 290 288 286 286 286 284 284 286 287 287 288 288 288 287 287 287 288 287 285 284
292 292 292 292 293 293 293 292 291 293 294 294 294 294 295 294 294 294 294 293 293 292 292 291 289 286 285 285 284 285 285 286 287 289 289 288 287 286 286 285 286 285 285
290 290 291 291 292 293 293 292 292 294 294 294 294 294 295 294 293 294 293 291 291 292 292 291 289 288 287 285 285 285 286 287 288 289 289 288 288 286 285 284 283 284 284
290 290 291 291 291 291 291 292 293 295 294 293 293 294 294 294 293 293 292 292 291 291 291 289 288 287 285 285 285 285 285 287 288 288 287 287 287 285 284 283 282 281 280
Height
5899 5899 5898 5898 5898 5898 5898 5898 5898 5897 5897 5897 5897 5898 5898 5898 5898 5898 5898 5898 5898 5898 5898 5897 5897 5897 5897 5897 5897 5896 5896 5895 5895 5895 5895 5895 5895 5895 5894 5894 5894 5894 5894
5899 5899 5899 5898 5898 5898 5898 5897 5897 5897 5897 5897 5897 5897 5898 5898 5897 5897 5897 5898 5898 5897 5897 5897 5896 5896 5896 5896 5895 5895 5895 5894 5894 5894 5894 5894 5893 5893 5893 5893 5893 5892 5892
5899 5899 5899 5898 5898 5898 5897 5897 5897 5897 5897 5897 5896 5897 5897 5897 5897 5897 5897 5897 5897 5896 5896 5896 5895 5895 5895 5895 5894 5894 5893 5893 5893 5892 5892 5892 5892 5891 5891 5891 5891 5891 5890
5899 5899 5899 5898 5898 5897 5897 5897 5896 5896 5896 5896 5896 5896 5896 5896 5896 5896 5896 5896 5895 5895 5895 5894 5894 5894 5893 5893 5893 5892 5892 5891 5891 5891 5890 5890 5890 5889 5889 5889 5889 5888 5888
5899 5898 5898 5897 5897 5896 5896 5896 5895 5895 5895 5895 5895 5895 5895 5895 5895 5894 5894 5894 5894 5894 5893 5893 5892 5892 5892 5891 5891 5890 5890 5890 5889 5889 5888 5888 5888 5887 5887 5887 5886 5886 5885
5898 5898 5897 5897 5896 5895 5895 5894 5894 5894 5893 5893 5893 5893 5893 5893 5893 5893 5893 5892 5891 5891 5891 5891 5891 5890 5890 5889 5889 5888 5888 5887 5887 5887 5886 5886 5885 5885 5884 5884 5884 5883 5883
5898 5897 5896 5896 5895 5894 5893 5893 5893 5892 5892 5892 5892 5892 5892 5891 5891 5891 5890 5890 5889 5889 5889 5889 5889 5888 5888 5887 5886 5886 5885 5885 5884 5884 5883 5882 5882 5882 5882 5881 5881 5880 5880
5897 5896 5895 5894 5894 5893 5892 5891 5891 5890 5890 5890 5890 5889 5889 5889 5887 5888 5888 5887 5887 5887 5886 5886 5886 5885 5885 5884 5884 5883 5882 5882 5881 5880 5880 5879 5879 5878 5878 5878 5877 5877 5876
5895 5894 5894 5893 5892 5891 5890 5889 5889 5888 5888 5887 5887 5887 5886 5886 5886 5885 5885 5885 5884 5883 5883 5883 5882 5882 5881 5880 5880 5879 5879 5878 5877 5877 5876 5875 5874 5874 5873 5873 5873 5872 5872
5893 5892 5891 5891 5890 5889 5888 5887 5887 5886 5886 5885 5885 5883 5883 5882 5882 5882 5882 5881 5881 5880 5879 5879 5878 5878 5877 5877 5876 5875 5875 5874 5873 5872 5872 5871 5870 5869 5868 5868 5868 5867 5867
5891 5890 5889 5888 5888 5887 5886 5886 5885 5884 5883 5883 5882 5881 5880 5879 5879 5879 5879 5878 5878 5877 5876 5875 5873 5873 5873 5873 5872 5871 5870 5869 5869 5868 5867 5866 5865 5864 5863 5863 5862 5862 5862
5889 5888 5887 5886 5886 5885 5884 5883 5883 5882 5881 5880 5880 5879 5878 5877 5877 5876 5875 5875 5874 5873 5872 5871 5870 5869 5868 5868 5867 5866 5865 5864 5863 5862 5862 5861 5860 5859 5858 5858 5857 5857 5857
5887 5886 5885 5884 5883 5882 5882 5881 5880 5879 5878 5878 5877 5876 5875 5874 5874 5873 5872 5871 5870 5869 5868 5867 5866 5865 5864 5863 5862 5861 5859 5858 5858 5857 5856 5855 5855 5854 5854 5853 5852 5851 5851
5884 5883 5882 5881 5880 5880 5879 5878 5877 5876 5875 5875 5874 5873 5872 5871 5870 5869 5868 5867 5866 5865 5863 5861 5861 5860 5859 5858 5857 5855 5854 5853 5852 5852 5851 5850 5850 5849 5848 5847 5847 5846 5845
5881 5880 5878 5878 5877 5876 5875 5874 5874 5873 5872 5871 5870 5869 5868 5867 5866 5865 5864 5863 5862 5861 5859 5858 5857 5855 5853 5852 5851 5850 5849 5848 5847 5846 5845 5845 5844 5843 5842 5841 5840 5839 5839
5877 5876 5875 5874 5873 5872 5872 5871 5870 5869 5868 5867 5866 5865 5863 5862 5861 5860 5859 5858 5857 5856 5855 5853 5852 5850 5848 5847 5846 5844 5843 5842 5841 5840 5840 5839 5838 5837 5836 5835 5834 5833 5832
5874 5873 5871 5870 5869 5869 5867 5867 5866 5865 5864 5862 5861 5860 5859 5857 5856 5855 5853 5852 5851 5850 5849 5848 5846 5844 5842 5841 5840 5839 5838 5836 5836 5835 5834 5833 5832 5831 5830 5829 5827 5826 5825
5870 5869 5867 5866 5865 5864 5863 5862 5861 5860 5859 5857 5856 5855 5853 5852 5851 5849 5847 5846 5844 5843 5842 5841 5840 5838 5837 5836 5834 5833 5832 5830 5829 5828 5827 5826 5825 5824 5823 5822 5820 5819 5818
5865 5864 5863 5862 5861 5859 5858 5857 5856 5854 5853 5852 5850 5849 5847 5846 5845 5843 5841 5839 5838 5836 5835 5834 5833 5831 5830 5828 5827 5826 5825 5824 5823 5821 5820 5819 5818 5817 5816 5815 5813 5812 5811
5861 5859 5858 5857 5856 5854 5853 5852 5850 5849 5848 5846 5844 5843 5841 5839 5838 5836 5834 5832 5830 5829 5828 5826 5825 5823 5822 5821 5820 5819 5818 5817 5816 5814 5813 5812 5811 5810 5809 5807 5806 5805 5803
5856 5854 5853 5851 5850 5849 5847 5846 5844 5843 5841 5839 5838 5836 5834 5832 5830 5828 5827 5825 5823 5821 5820 5818 5817 5816 5815 5814 5813 5812 5811 5809 5808 5807 5805 5805 5803 5802 5801 5799 5798 5797 5796
5850 5849 5847 5846 5844 5843 5841 5839 5837 5835 5834 5832 5830 5828 5826 5825 5823 5821 5819 5817 5815 5813 5812 5810 5809 5808 5807 5806 5805 5803 5802 5802 5801 5799 5797 5796 5795 5794 5793 5791 5790 5789 5788
5843 5842 5841 5839 5837 5836 5834 5832 5830 5828 5826 5825 5823 5821 5819 5817 5815 5813 5811 5809 5807 5805 5804 5802 5801 5799 5798 5797 5796 5795 5794 5793 5792 5790 5788 5787 5786 5786 5785 5783 5782 5781 5780
5836 5835 5833 5832 5830 5828 5826 5824 5822 5820 5819 5817 5815 5813 5811 5808 5806 5804 5802 5800 5798 5797 5795 5794 5792 5791 5790 5788 5787 5786 5785 5784 5782 5781 5780 5779 5778 5777 5776 5775 5774 5773 5772
5829 5827 5825 5824 5822 5820 5818 5816 5814 5812 5810 5808 5806 5804 5802 5800 5798 5796 5793 5792 5790 5788 5786 5784 5783 5782 5780 5779 5778 5778 5776 5775 5774 5772 5771 5770 5769 5768 5767 5767 5766 5765 5764
5820 5819 5817 5815 5813 5811 5810 5808 5806 5804 5802 5799 5797 5795 5793 5791 5788 5786 5784 5782 5780 5779 5777 5775 5774 5772 5771 5770 5769 5768 5767 5766 5765 5764 5762 5761 5760 5759 5758 5758 5757 5756 5756